sat.trackr.live / text

‹ back to catalog

STARLINK-33842

NORAD 63782 · 2025-091H

PAYLOAD ACTIVE UNKNOWN

§ Identity

Operator
Country
US
Launch date
2025-05-02
Launch site
AFETR
Launch vehicle
Mass (kg)
RCS (m²)

Purposes: comms

External: N2YO · Heavens-Above · Gunter

§ Orbital elements

Epoch: 2026-09-19T16:50:57.236640Z

Period
94.27 min
Inclination
43.0058°
Eccentricity
0.0001951
Mean motion
15.27594055 rev/d
Perigee alt
481.7 km
Apogee alt
484.3 km
Semi-major
6,861.1 km
B*
4.1877e-4
RAAN
36.8693°
Arg perigee
292.0369°
Mean anomaly
68.0275°
Rev number
7,866

§ Raw data

STARLINK-338421 63782U 25091H   26262.70205135  .00011284  00000+0  41877-3 0  99992 63782  43.0058  36.8693 0001951 292.0369  68.0275 15.27594055 78668

JSON: /api/v1/satellites/63782 · /tle

For live sub-satellite position, see the globe view (requires WebGL).

§ Visibility from observer

Set your observer location to see the next 7 days of passes ≥ 10°. The values pass through the URL so the page stays shareable.

No JS? Fill the form by hand. The geolocation button needs JavaScript.